Wind_Speed
38 39 39 40 40 40 40 41 42 43 43 43 43 43 43 43 44 45 45 45 45 45 44 43 42 42 41 41 41 41 42 42 42 43 44 45 45 45 45 45 45 46 46
37 38 38 39 39 40 40 40 41 41 42 42 42 42 42 42 42 43 44 44 44 44 43 42 41 41 40 40 40 40 40 40 40 40 41 42 42 42 42 42 42 43 43
36 37 38 38 39 39 39 39 40 39 40 40 41 41 42 42 42 42 43 42 43 42 41 41 40 40 40 40 40 39 39 39 40 40 39 40 40 41 41 42 41 42 41
36 37 37 37 38 38 38 39 39 39 39 39 40 41 41 41 41 41 41 41 41 40 40 39 39 40 40 40 39 39 38 38 39 39 39 39 39 39 40 40 40 40 40
35 35 36 36 37 38 38 38 38 38 38 39 39 40 40 40 39 39 39 39 40 40 39 39 39 39 39 38 38 39 39 38 38 38 38 39 39 38 38 38 38 39 40
33 34 34 35 36 36 37 36 37 37 37 37 37 38 38 38 38 38 38 38 38 38 38 38 38 38 37 38 38 39 39 38 37 37 37 37 37 36 36 36 36 37 38
32 32 33 34 35 35 35 35 35 34 35 35 35 35 35 36 36 36 36 36 37 37 37 37 37 37 36 37 37 38 38 38 38 36 36 36 36 36 35 34 34 35 36
31 31 32 33 34 34 34 34 33 32 31 32 32 32 32 32 33 34 34 34 34 34 35 36 36 36 37 37 37 37 37 37 37 37 36 35 35 35 34 34 34 34 34
30 30 30 30 31 31 31 30 30 29 29 29 29 29 29 29 30 31 31 32 32 32 32 33 34 34 35 35 35 36 36 36 36 36 35 34 34 34 33 33 32 32 31
29 29 29 29 30 29 29 28 27 26 26 26 26 27 26 26 27 28 28 29 30 30 31 31 32 33 33 33 33 34 34 34 34 33 32 32 31 32 32 31 31 30 29
27 28 28 28 27 27 26 26 26 25 25 25 25 24 25 25 25 25 26 26 27 28 30 30 31 31 31 31 32 32 31 31 31 31 30 29 29 29 29 30 29 28 27
26 26 26 26 26 25 24 25 24 24 24 23 23 23 23 24 24 24 24 25 26 27 28 29 29 30 30 31 31 31 30 30 30 30 30 29 28 27 27 27 27 27 26
24 25 25 25 24 23 23 23 22 22 22 22 22 22 22 23 23 23 23 24 24 25 26 26 28 28 29 29 29 29 29 29 28 28 28 27 27 26 25 24 24 24 24
23 23 23 22 22 21 21 21 21 21 21 20 21 21 22 22 22 23 22 23 23 23 24 25 26 27 27 26 27 26 26 26 26 25 25 24 24 23 23 22 21 21 21
22 22 22 20 20 19 19 20 20 20 20 20 20 20 21 22 22 22 22 22 22 22 23 24 24 24 24 24 24 24 24 23 23 23 22 22 22 21 21 20 20 19 19
22 20 19 18 18 18 18 19 19 19 19 19 19 19 20 20 20 21 22 23 22 22 22 22 22 22 21 21 21 21 20 20 20 21 21 21 20 20 19 18 18 18 17
20 18 17 16 16 16 17 17 18 18 18 19 19 19 19 19 20 20 21 22 21 21 20 20 20 19 19 18 18 18 18 18 18 18 19 18 18 17 17 17 16 16 15
18 17 16 16 16 16 16 16 16 17 18 18 18 18 18 18 19 19 19 19 19 19 18 18 17 16 16 16 16 16 16 15 15 15 15 15 15 15 15 15 15 15 14
16 15 15 15 15 15 15 16 16 16 17 16 17 17 17 17 17 17 17 17 17 17 16 16 15 15 14 14 14 14 14 14 14 14 13 13 13 13 14 14 14 14 13
15 14 14 15 14 15 15 15 16 16 16 16 16 16 15 15 15 15 14 14 15 15 14 14 13 13 13 13 13 12 12 12 12 12 12 12 12 12 12 12 12 11 11
14 13 14 14 14 14 15 15 15 15 15 14 14 14 13 13 13 13 14 13 13 13 13 12 12 12 11 11 11 10 11 11 11 10 10 10 10 10 9 9 9 8 7
13 13 13 13 14 14 14 13 13 13 12 11 11 11 11 12 12 12 12 11 11 10 9 9 9 9 9 9 10 10 9 9 9 8 8 8 8 8 8 7 7 6 5
12 12 12 12 13 12 12 12 11 11 11 10 11 11 11 10 10 10 9 8 8 7 7 7 7 8 8 8 8 8 8 8 8 8 7 7 6 6 6 5 5 5 4
12 12 12 12 12 11 11 11 11 10 10 10 10 10 9 8 8 7 6 6 6 6 6 5 6 6 6 7 7 7 7 7 6 6 5 4 4 3 3 3 2 3 3
12 12 12 12 11 11 10 10 10 10 9 9 9 8 8 7 6 6 6 6 5 5 5 5 5 5 5 5 5 5 5 5 5 4 4 4 3 3 2 2 2 2 3
12 11 11 11 10 10 9 9 9 8 8 8 7 7 6 6 6 5 5 5 5 5 5 5 5 5 5 5 5 4 4 4 4 4 4 4 4 3 2 2 2 2 2
Wind_Direction
269 268 267 266 267 267 269 270 270 270 269 268 267 266 266 266 265 265 265 265 264 264 265 266 268 268 269 269 269 268 269 270 271 273 275 275 277 278 277 277 278 277 277
269 269 268 267 267 268 269 270 271 270 269 267 266 265 265 265 265 264 265 265 265 264 264 265 266 267 268 268 268 268 269 270 272 275 276 276 277 278 277 277 278 280 279
269 270 269 269 269 270 270 271 271 270 269 267 266 266 265 265 265 265 266 265 264 264 264 264 264 266 267 268 268 268 269 271 273 275 277 277 278 278 277 277 278 278 278
271 271 271 271 271 271 272 271 271 271 271 270 268 266 265 265 266 266 266 264 263 263 263 263 264 265 267 268 268 269 270 272 274 276 277 276 277 278 279 279 278 279 280
273 272 272 272 272 273 273 272 271 271 272 270 269 266 265 265 265 265 264 263 262 263 263 263 264 265 266 266 267 268 269 272 275 277 276 276 277 279 280 280 280 280 281
275 274 273 273 273 274 274 273 273 272 272 270 268 267 265 264 264 264 264 264 263 263 262 262 263 265 266 267 268 269 270 272 275 276 277 277 277 279 280 280 281 281 281
277 276 275 275 275 275 274 274 275 274 273 271 269 268 266 264 263 264 264 263 262 262 262 262 262 264 266 268 269 269 269 272 274 276 277 278 278 278 280 281 281 282 282
280 278 278 277 276 276 274 273 274 274 275 272 271 270 267 264 263 264 264 262 261 261 261 262 262 264 266 267 269 269 270 272 273 276 278 278 278 278 279 281 281 282 283
281 279 280 279 278 278 275 273 274 275 275 273 271 270 267 265 265 265 264 262 260 260 260 261 262 264 266 268 269 269 270 271 273 275 277 278 279 280 279 280 281 281 282
282 279 281 281 281 278 274 272 273 274 275 274 272 269 268 269 269 267 265 264 262 261 261 262 263 264 266 267 268 268 270 270 271 274 276 279 280 280 279 280 282 282 283
281 280 281 282 280 278 273 272 272 273 273 272 271 270 268 267 268 268 268 267 264 262 262 263 264 265 267 267 267 269 270 270 271 272 275 279 280 279 279 281 282 283 283
283 282 282 282 281 277 272 272 272 272 272 272 272 271 269 267 268 269 269 268 266 265 265 265 264 266 268 268 268 270 271 271 271 272 274 277 279 280 280 280 280 282 281
284 285 284 283 279 275 271 270 271 272 272 273 272 270 270 270 270 270 270 269 269 270 269 268 268 268 269 270 269 270 270 271 271 272 275 276 277 279 280 280 281 281 281
285 286 285 283 278 273 268 269 271 272 272 273 273 271 271 272 273 271 271 272 272 272 271 271 271 271 271 269 268 268 269 270 270 272 274 275 277 278 279 279 280 280 280
285 286 283 279 277 272 270 271 271 272 272 272 273 273 274 274 274 273 273 274 274 273 274 273 272 271 269 268 267 267 268 269 269 272 273 275 277 278 279 280 280 280 281
285 284 281 278 275 271 270 272 272 271 270 271 272 274 276 276 275 274 274 275 275 275 275 273 272 269 269 268 266 265 267 268 269 271 273 276 276 276 277 278 279 280 282
281 278 276 275 275 274 273 273 272 271 271 272 274 276 278 278 277 275 274 274 275 275 274 273 271 269 268 266 263 263 265 269 271 271 273 276 275 274 276 278 277 277 279
279 274 272 273 274 274 272 271 272 273 274 275 276 278 279 279 279 278 276 274 274 274 275 273 269 266 265 263 261 263 265 268 271 274 274 275 276 277 279 278 277 277 278
277 272 271 273 273 273 271 272 274 275 276 277 279 279 279 280 280 280 278 275 274 274 274 270 265 264 263 260 260 262 263 267 272 275 274 275 279 281 281 280 277 275 276
273 270 270 270 271 273 273 276 278 279 279 278 279 280 280 281 281 281 279 279 276 273 271 267 263 262 261 260 259 261 263 267 271 274 274 276 278 280 281 281 278 274 272
271 269 269 270 271 275 276 279 281 280 278 277 278 278 279 281 281 281 280 280 278 274 269 264 261 259 258 256 256 260 264 265 268 273 275 275 275 279 282 281 277 273 269
271 270 270 271 274 277 277 278 279 278 276 274 276 279 281 283 284 283 282 280 278 275 269 262 259 257 255 253 254 259 264 264 262 266 270 272 274 279 283 281 274 267 260
273 270 269 271 275 276 276 274 273 273 272 273 277 281 284 286 285 282 279 277 276 271 268 264 261 258 253 250 254 257 259 258 257 259 262 264 270 275 279 275 268 259 240
275 272 272 274 276 276 274 271 269 270 272 274 276 280 282 282 279 277 276 277 277 267 263 258 256 253 249 249 251 254 254 251 251 252 251 255 262 265 269 263 247 218 205
275 272 271 272 272 272 270 266 265 268 272 274 276 276 274 274 272 273 275 276 272 263 254 252 251 245 241 238 240 243 242 242 241 238 241 246 257 268 266 235 213 199 196
274 271 270 269 267 267 265 261 262 266 271 274 272 266 264 266 265 269 273 271 268 261 252 248 242 236 232 227 225 227 237 248 249 248 247 248 254 244 224 206 199 192 193
Height
5587 5587 5587 5587 5588 5588 5587 5587 5587 5586 5586 5585 5585 5586 5586 5586 5587 5588 5589 5590 5591 5592 5593 5594 5595 5596 5596 5596 5596 5596 5596 5597 5598 5598 5596 5595 5593 5592 5590 5588 5586 5585 5584
5577 5577 5576 5577 5577 5576 5576 5576 5575 5574 5573 5573 5573 5574 5574 5575 5575 5576 5577 5578 5579 5581 5582 5583 5585 5585 5586 5586 5586 5586 5586 5586 5586 5586 5585 5584 5582 5581 5579 5577 5575 5573 5572
5567 5566 5566 5566 5566 5565 5565 5564 5563 5563 5562 5562 5562 5562 5563 5563 5564 5565 5565 5566 5568 5569 5571 5572 5574 5574 5575 5575 5576 5576 5576 5576 5575 5575 5575 5573 5572 5570 5568 5567 5565 5563 5561
5557 5556 5556 5556 5555 5554 5554 5553 5552 5551 5551 5550 5550 5550 5551 5552 5552 5553 5553 5555 5556 5558 5560 5561 5563 5564 5564 5565 5565 5565 5565 5565 5565 5565 5564 5562 5561 5559 5558 5556 5555 5552 5550
5547 5546 5546 5545 5545 5544 5543 5542 5541 5540 5540 5539 5539 5539 5539 5540 5541 5542 5542 5543 5545 5547 5549 5551 5552 5553 5554 5554 5555 5555 5555 5555 5555 5554 5553 5552 5551 5549 5548 5546 5544 5543 5541
5537 5536 5536 5535 5534 5534 5533 5531 5531 5530 5529 5529 5528 5528 5529 5529 5530 5531 5532 5533 5534 5536 5538 5540 5541 5542 5543 5543 5544 5544 5545 5545 5545 5544 5543 5542 5540 5539 5537 5535 5534 5533 5531
5528 5527 5526 5525 5524 5523 5522 5521 5520 5519 5519 5518 5518 5518 5518 5519 5519 5520 5521 5523 5524 5526 5528 5529 5531 5532 5533 5533 5534 5534 5534 5534 5534 5533 5533 5531 5530 5529 5527 5526 5524 5522 5520
5519 5518 5517 5515 5514 5513 5512 5511 5510 5510 5509 5509 5509 5509 5509 5509 5510 5511 5511 5513 5514 5516 5517 5519 5520 5521 5522 5523 5524 5524 5524 5524 5523 5523 5522 5521 5520 5518 5517 5515 5514 5513 5511
5510 5509 5507 5506 5505 5504 5503 5502 5502 5501 5501 5500 5500 5500 5501 5501 5501 5502 5502 5504 5505 5506 5507 5509 5510 5512 5513 5513 5514 5514 5514 5514 5513 5512 5512 5511 5509 5508 5507 5505 5504 5503 5502
5502 5501 5499 5498 5497 5496 5495 5494 5494 5494 5493 5493 5493 5493 5493 5493 5493 5494 5494 5495 5496 5497 5499 5500 5501 5502 5503 5503 5504 5504 5505 5504 5504 5503 5502 5501 5500 5498 5497 5496 5494 5493 5492
5494 5493 5492 5490 5489 5488 5487 5487 5487 5487 5486 5486 5486 5486 5486 5486 5486 5486 5487 5487 5488 5489 5490 5491 5492 5492 5493 5493 5494 5495 5495 5495 5495 5495 5494 5492 5491 5490 5488 5486 5485 5484 5483
5487 5486 5484 5483 5481 5481 5480 5480 5480 5480 5480 5480 5479 5479 5479 5480 5480 5480 5480 5480 5480 5481 5482 5482 5483 5483 5484 5484 5485 5485 5486 5486 5486 5486 5485 5484 5483 5481 5480 5478 5477 5476 5475
5479 5478 5477 5476 5475 5474 5474 5474 5473 5473 5473 5473 5473 5473 5474 5473 5473 5473 5473 5473 5473 5474 5474 5474 5474 5475 5475 5475 5476 5476 5477 5477 5477 5477 5477 5476 5475 5474 5473 5471 5470 5469 5468
5472 5471 5470 5469 5468 5468 5468 5468 5468 5468 5467 5467 5467 5468 5468 5467 5467 5467 5467 5467 5467 5467 5467 5466 5467 5467 5467 5467 5468 5469 5469 5469 5469 5470 5469 5469 5468 5467 5466 5465 5464 5464 5463
5466 5465 5464 5463 5462 5462 5462 5462 5462 5462 5462 5462 5462 5462 5462 5462 5461 5461 5460 5460 5460 5460 5459 5460 5460 5460 5460 5460 5461 5461 5462 5462 5462 5462 5462 5462 5462 5461 5460 5460 5459 5458 5458
5459 5458 5458 5457 5457 5457 5457 5457 5457 5457 5457 5457 5456 5456 5456 5455 5455 5454 5454 5454 5453 5453 5453 5453 5453 5453 5453 5453 5453 5454 5455 5455 5456 5456 5456 5456 5456 5455 5455 5455 5454 5454 5453
5453 5452 5452 5452 5452 5452 5452 5452 5452 5452 5452 5451 5451 5451 5450 5449 5449 5448 5448 5448 5447 5447 5447 5447 5447 5447 5447 5447 5447 5448 5449 5450 5450 5450 5451 5451 5450 5450 5450 5450 5450 5449 5449
5447 5447 5447 5447 5447 5447 5447 5447 5447 5447 5447 5446 5446 5445 5445 5444 5444 5443 5443 5442 5442 5442 5442 5441 5441 5441 5442 5442 5443 5443 5444 5445 5445 5446 5446 5446 5446 5446 5446 5445 5445 5445 5445
5442 5442 5442 5442 5442 5442 5442 5442 5442 5442 5442 5441 5441 5440 5440 5439 5439 5438 5437 5437 5437 5437 5437 5437 5437 5437 5438 5438 5439 5439 5440 5441 5441 5441 5442 5442 5442 5441 5441 5441 5441 5441 5441
5437 5437 5437 5438 5438 5438 5438 5438 5438 5437 5437 5436 5436 5435 5435 5435 5434 5434 5433 5433 5433 5433 5433 5433 5433 5433 5434 5435 5435 5436 5437 5437 5438 5438 5438 5438 5438 5438 5438 5437 5438 5438 5438
5433 5433 5433 5433 5433 5433 5433 5433 5433 5433 5432 5432 5431 5431 5431 5430 5430 5430 5429 5429 5429 5429 5429 5429 5429 5430 5431 5431 5432 5433 5433 5434 5434 5435 5435 5435 5435 5435 5434 5435 5435 5435 5435
5428 5428 5429 5429 5429 5429 5429 5429 5429 5428 5428 5428 5428 5428 5427 5427 5427 5426 5426 5426 5426 5425 5425 5426 5426 5427 5428 5429 5429 5430 5431 5431 5431 5432 5432 5432 5432 5432 5432 5432 5432 5432 5433
5424 5424 5424 5425 5425 5425 5425 5425 5425 5425 5425 5425 5425 5425 5424 5424 5423 5423 5423 5423 5423 5423 5423 5423 5424 5425 5425 5426 5427 5428 5428 5429 5429 5430 5430 5430 5430 5430 5430 5430 5430 5431 5431
5420 5420 5421 5421 5421 5421 5421 5421 5422 5422 5422 5422 5422 5422 5421 5421 5421 5421 5421 5421 5421 5421 5421 5422 5422 5423 5423 5424 5425 5425 5426 5426 5427 5427 5428 5428 5429 5429 5429 5429 5430 5430 5430
5417 5417 5417 5417 5417 5418 5418 5418 5419 5419 5419 5419 5419 5419 5419 5419 5419 5419 5419 5419 5419 5419 5419 5420 5420 5421 5422 5422 5423 5424 5424 5425 5425 5426 5427 5427 5428 5428 5428 5429 5429 5430 5430
5413 5413 5414 5414 5414 5414 5415 5415 5416 5416 5416 5416 5416 5417 5417 5417 5417 5417 5417 5417 5417 5418 5418 5418 5419 5420 5420 5421 5422 5423 5423 5424 5424 5425 5426 5426 5427 5427 5428 5428 5429 5430 5430